Tracking 31027 objects as of 19-Jul-2025
HD Live streaming from Space Station
objects crossing your sky now

ALEXIS

Track ALEXIS now!
10-day predictions
ALEXIS is classified as:


NORAD ID: 22638
Int'l Code: 1993-026A
Perigee: 742.8 km
Apogee: 831.5 km
Inclination: 69.9 °
Period: 100.5 minutes
Semi major axis: 7158 km
RCS: Unknown
Launch date: April 25, 1993
Source: United States (US)
Launch site: AIR FORCE WESTERN TEST RANGE (AFWTR)
Your satellite tracking list
THORAD DELTA 1 DEB
Track 1 satellite(s)




NASA's NSSDC Master Catalog

Two Line Element Set (TLE):
1 22638U 93026A   25199.67218858  .00000071  00000-0  46244-4 0  9994
2 22638  69.9224 338.0844 0061953 255.9626 103.4606 14.33520875 62369
Source of the keplerian elements: McCants